Location: Newark
(43.0000°N, 1.6781°W)
Time: 09:53:13
(UTC+00:00)

Explorer 7 - Pass Details

Date: 25 April 2021
Orbit: 484 x 677 km, 50.3° (Epoch: 07 May)

Event Time Altitude Azimuth Distance (km) Brightness Sun altitude
Rises 20:55:00 0° 289° (WNW) 2,657 11.6 -18.8°
Reaches altitude 10° 20:57:23 10° 300° (WNW) 1,799 10.6 -19.1°
Maximum altitude 21:01:00 30° 3° (N) 1,030 8.6 -19.6°
Enters shadow 21:04:08 14° 59° (ENE) 1,672 9.1 -20.1°
Drops below altitude 10° 21:04:50 10° 65° (ENE) 1,906 - -20.1°
Sets 21:07:25 0° 76° (ENE) 2,845 - -20.5°
